Location: *
(50.3194°N, 7.1067°E)
Time: 02:21:28
(UTC+00:00)

Cosmos 1190 Rocket - Pass Details

Date: 22 September 2019
Orbit: 757 x 780 km, 74.1° (Epoch: 18 October)

Event Time Altitude Azimuth Distance (km) Brightness Sun altitude
Rises 18:32:57 0° 335° (NNW) 3,272 7.9 -10.7°
Reaches altitude 10° 18:35:21 10° 335° (NNW) 2,337 7.1 -11.1°
Maximum altitude 18:40:41 85° 249° (WSW) 783 4.1 -11.9°
Drops below altitude 10° 18:45:56 10° 160° (SSE) 2,306 6.1 -12.7°
Enters shadow 18:47:50 - 160° (SSE) 3,046 6.8 -13.0°
